West Plains, MO

1:31 AM CDT on May 26, 2017 (GMT -0500)
West Plains Municipal

Weather History for KUNO - February, 2013

Change the Weather History Date:

Monday, February 25, 2013

  Actual Average Record
Temperature  
Mean Temperature 43 °F 41 °F  
Max Temperature 51 °F 52 °F 78 °F (1981)
Min Temperature 34 °F 29 °F 5 °F (1967)
Degree Days  
Heating Degree Days 22 24  
Month to date heating degree days 674 689  
Since 1 July heating degree days 3220 3393  
Cooling Degree Days 0 0  
Month to date cooling degree days 0 0  
Year to date cooling degree days 0 0  
Moisture  
Dew Point 30 °F    
Average Humidity 64    
Maximum Humidity 92    
Minimum Humidity 36    
Precipitation  
Precipitation 1.43 in 0.11 in 1.43 in (2013)
Month to date precipitation 3.46 2.54  
Year to date precipitation 6.84 5.26  
Sea Level Pressure  
Sea Level Pressure 29.67 in    
Wind  
Wind Speed 15 mph (NE)    
Max Wind Speed 26 mph    
Max Gust Speed 36 mph    
Visibility 7 miles    
Events Rain , Thunderstorm    
T = Trace of Precipitation, MM = Missing Value Source: NWS Daily Summary

Daily Weather History Graph

Daily Weather History Graph

Search for Another Location

Airport or City:

Trip Planner

Search our weather history database for the weather conditions in past years. The results will help you decide how hot, cold, wet, or windy it might be!

Date:

Astronomy

Feb. 25, 2013 Rise Set
Actual Time 6:43 AM CST 5:58 PM CST
Civil Twilight 6:17 AM CST 6:24 PM CST
Nautical Twilight 5:47 AM CST 6:54 PM CST
Astronomical Twilight 5:17 AM CST 7:24 PM CST
Moon 6:10 PM CST (2/25) 6:14 AM CST (2/25)
Length of Visible Light 12h 07m
Length of Day
11h 14m
Full, 100% of the Moon is Illuminated
Feb 25
Full
Feb 25
Full
Mar 4
Last Quarter
Mar 11
New
Mar 19
First Quarter

Hourly Weather History & Observations

Time (CST) Temp. Windchill Dew Point Humidity Pressure Visibility Wind Dir Wind Speed Gust Speed Precip Events Conditions
12:53 AM 37.0 °F 31.0 °F 27.0 °F 67% 29.95 in 10.0 mi East 8.1 mph - N/A   Clear
1:53 AM 36.0 °F 29.6 °F 26.1 °F 67% 29.96 in 10.0 mi ENE 8.1 mph - N/A   Clear
2:53 AM 36.0 °F 29.6 °F 25.0 °F 64% 29.95 in 10.0 mi ENE 8.1 mph - N/A   Clear
3:53 AM 35.1 °F 28.6 °F 25.0 °F 67% 29.95 in 10.0 mi ENE 8.1 mph - N/A   Clear
4:53 AM 35.1 °F 27.4 °F 25.0 °F 67% 29.91 in 10.0 mi East 10.4 mph - N/A   Clear
5:53 AM 35.1 °F 28.6 °F 24.1 °F 64% 29.91 in 10.0 mi ENE 8.1 mph - N/A   Clear
6:53 AM 34.0 °F 26.6 °F 24.1 °F 67% 29.91 in 10.0 mi ENE 9.2 mph - N/A   Clear
7:53 AM 37.9 °F 30.5 °F 24.1 °F 57% 29.89 in 10.0 mi East 11.5 mph 19.6 mph N/A   Clear
8:53 AM 41.0 °F 33.1 °F 25.0 °F 53% 29.89 in 10.0 mi East 15.0 mph 21.9 mph N/A   Clear
9:53 AM 44.1 °F 36.8 °F 25.0 °F 47% 29.86 in 10.0 mi East 16.1 mph 23.0 mph N/A   Mostly Cloudy
10:53 AM 45.0 °F 39.7 °F 25.0 °F 46% 29.85 in 10.0 mi East 10.4 mph 20.7 mph N/A   Mostly Cloudy
11:53 AM 48.0 °F - 25.0 °F 41% 29.80 in 10.0 mi ENE 17.3 mph 23.0 mph N/A   Mostly Cloudy
12:53 PM 50.0 °F - 25.0 °F 38% 29.71 in 10.0 mi East 18.4 mph 28.8 mph N/A   Clear
1:53 PM 50.0 °F - 24.1 °F 36% 29.68 in 10.0 mi ENE 12.7 mph 25.3 mph N/A   Partly Cloudy
2:53 PM 50.0 °F - 25.0 °F 38% 29.61 in 10.0 mi ENE 19.6 mph 25.3 mph N/A   Mostly Cloudy
3:53 PM 46.9 °F - 30.0 °F 52% 29.56 in 6.0 mi ENE 16.1 mph 27.6 mph 0.01 in Rain Rain
4:37 PM 44.6 °F 41.4 °F 32.0 °F 61% 29.58 in 4.0 mi Variable 5.8 mph - 0.05 in Rain , Thunderstorm Light Thunderstorms and Rain
4:45 PM 42.8 °F 38.0 °F 33.8 °F 70% 29.57 in 2.5 mi NNE 8.1 mph - 0.09 in Rain , Thunderstorm Thunderstorms and Rain
4:53 PM 42.1 °F 33.6 °F 34.0 °F 73% 29.57 in 5.0 mi NE 18.4 mph 25.3 mph 0.11 in Rain , Thunderstorm Thunderstorms and Rain
5:07 PM 42.8 °F 35.8 °F 33.8 °F 70% 29.61 in 9.0 mi WNW 13.8 mph - 0.02 in Rain , Thunderstorm Light Thunderstorms and Rain
5:26 PM 39.2 °F 33.6 °F 35.6 °F 87% 29.64 in 2.5 mi West 8.1 mph - 0.15 in Rain , Thunderstorm Heavy Thunderstorms and Rain
5:35 PM 39.2 °F 33.0 °F 35.6 °F 87% 29.63 in 3.0 mi NNW 9.2 mph - 0.19 in Rain , Thunderstorm Heavy Thunderstorms and Rain
5:53 PM 37.9 °F 30.0 °F 34.0 °F 86% 29.62 in 4.0 mi NE 12.7 mph - 0.27 in Rain Heavy Rain
6:23 PM 39.2 °F 30.2 °F 35.6 °F 87% 29.59 in 3.0 mi NE 17.3 mph - 0.11 in Rain , Thunderstorm Heavy Rain
6:38 PM 39.2 °F 29.6 °F 35.6 °F 87% 29.59 in 3.0 mi NE 19.6 mph 25.3 mph 0.18 in Rain Rain
6:53 PM 37.9 °F 28.2 °F 35.1 °F 89% 29.60 in 3.0 mi NE 18.4 mph - 0.27 in Rain Heavy Rain
7:50 PM 37.4 °F 27.5 °F 35.6 °F 93% 29.57 in 5.0 mi NE 18.4 mph 29.9 mph 0.24 in Rain Rain
7:51 PM 37.9 °F 27.6 °F 35.1 °F 89% 29.59 in 4.0 mi NE 20.7 mph 29.9 mph 0.24 in Rain Rain
8:50 PM 37.4 °F 27.5 °F 33.8 °F 87% 29.52 in 5.0 mi NE 18.4 mph 28.8 mph 0.10 in Rain Light Rain
8:53 PM 37.0 °F 26.4 °F 34.0 °F 89% 29.53 in 5.0 mi NE 20.7 mph 28.8 mph 0.11 in Rain Rain
9:24 PM 37.4 °F 26.4 °F 33.8 °F 87% 29.47 in 4.0 mi NE 23.0 mph 35.7 mph 0.08 in Rain Light Rain
9:53 PM 37.0 °F 26.4 °F 34.0 °F 89% 29.48 in 5.0 mi NE 20.7 mph 31.1 mph 0.10 in Rain Light Rain
10:22 PM 37.4 °F 28.2 °F 33.8 °F 87% 29.44 in 4.0 mi NE 16.1 mph 28.8 mph 0.14 in Rain Rain
10:32 PM 37.4 °F 26.9 °F 33.8 °F 87% 29.43 in 4.0 mi NE 20.7 mph 28.8 mph 0.17 in Rain Rain
10:53 PM 37.0 °F 26.7 °F 34.0 °F 89% 29.42 in 4.0 mi NE 19.6 mph 27.6 mph 0.25 in Rain Rain
11:53 PM 37.0 °F 26.4 °F 34.0 °F 89% 29.37 in 10.0 mi NE 20.7 mph 31.1 mph 0.07 in   Overcast